Time,TemperatureF,DewpointF,PressureIn,WindDirection,WindDirectionDegrees,WindSpeedMPH,WindSpeedGustMPH,Humidity,HourlyPrecipIn,Conditions,Clouds,dailyrainin,SoftwareType,DateUTC
2013-05-24 00:04:00,51.8,37.0,29.97,North,0,0.0,0.0,57,0.00,,,0.00,WUHU216HW,2013-05-24 07:04:00,
2013-05-24 00:09:00,51.7,36.8,29.97,North,0,0.0,0.0,57,0.00,,,0.00,WUHU216HW,2013-05-24 07:09:00,
2013-05-24 00:14:00,51.5,36.6,29.97,North,0,0.0,0.0,57,0.00,,,0.00,WUHU216HW,2013-05-24 07:14:00,
2013-05-24 00:19:00,51.3,36.6,29.97,North,0,0.0,0.0,57,0.00,,,0.00,WUHU216HW,2013-05-24 07:19:00,
2013-05-24 00:24:00,51.1,36.4,29.97,North,0,0.0,0.0,57,0.00,,,0.00,WUHU216HW,2013-05-24 07:24:00,
2013-05-24 00:29:00,50.9,36.6,29.96,North,0,0.0,0.0,58,0.00,,,0.00,WUHU216HW,2013-05-24 07:29:00,
2013-05-24 00:34:00,50.8,36.5,29.96,North,0,0.0,0.0,58,0.00,,,0.00,WUHU216HW,2013-05-24 07:34:00,
2013-05-24 00:39:00,50.8,36.5,29.97,North,0,0.0,0.0,58,0.00,,,0.00,WUHU216HW,2013-05-24 07:39:00,
2013-05-24 00:44:00,50.6,36.3,29.97,North,0,0.0,0.0,58,0.00,,,0.00,WUHU216HW,2013-05-24 07:44:00,
2013-05-24 00:49:00,50.6,36.3,29.96,North,0,0.0,0.0,58,0.00,,,0.00,WUHU216HW,2013-05-24 07:49:00,
2013-05-24 00:54:00,50.6,36.7,29.97,North,0,0.0,0.0,59,0.00,,,0.00,WUHU216HW,2013-05-24 07:54:00,
2013-05-24 00:59:00,50.4,36.6,29.97,North,0,0.0,0.0,59,0.00,,,0.00,WUHU216HW,2013-05-24 07:59:00,
2013-05-24 01:04:00,50.4,36.6,29.97,North,0,0.0,0.0,59,0.00,,,0.00,WUHU216HW,2013-05-24 08:04:00,
2013-05-24 01:09:00,50.2,36.5,29.97,North,0,0.0,0.0,59,0.00,,,0.00,WUHU216HW,2013-05-24 08:09:00,
2013-05-24 01:14:00,50.2,36.5,29.96,North,0,0.0,0.0,59,0.00,,,0.00,WUHU216HW,2013-05-24 08:14:00,
2013-05-24 01:19:00,50.0,36.3,29.96,North,0,0.0,0.0,59,0.00,,,0.00,WUHU216HW,2013-05-24 08:19:00,
2013-05-24 01:24:00,50.0,36.3,29.96,North,0,0.0,0.0,59,0.00,,,0.00,WUHU216HW,2013-05-24 08:24:00,
2013-05-24 01:30:00,49.9,36.5,29.96,North,0,0.0,0.0,60,0.00,,,0.00,WUHU216HW,2013-05-24 08:30:00,
2013-05-24 01:35:00,49.7,36.4,29.96,North,0,0.0,0.0,60,0.00,,,0.00,WUHU216HW,2013-05-24 08:35:00,
2013-05-24 01:40:00,49.5,36.3,29.96,North,0,0.0,0.0,60,0.00,,,0.00,WUHU216HW,2013-05-24 08:40:00,
2013-05-24 01:45:00,49.3,36.5,29.96,North,0,0.0,0.0,61,0.00,,,0.00,WUHU216HW,2013-05-24 08:45:00,
2013-05-24 01:50:00,49.3,36.5,29.96,North,0,0.0,0.0,61,0.00,,,0.00,WUHU216HW,2013-05-24 08:50:00,
2013-05-24 01:55:00,49.1,36.3,29.96,North,0,0.0,0.0,61,0.00,,,0.00,WUHU216HW,2013-05-24 08:55:00,
2013-05-24 02:00:00,49.1,36.3,29.96,North,0,0.0,0.0,61,0.00,,,0.00,WUHU216HW,2013-05-24 09:00:00,
2013-05-24 02:05:00,49.0,36.1,29.96,North,0,0.0,0.0,61,0.00,,,0.00,WUHU216HW,2013-05-24 09:05:00,
2013-05-24 02:10:00,49.0,36.6,29.96,North,0,0.0,0.0,62,0.00,,,0.00,WUHU216HW,2013-05-24 09:10:00,
2013-05-24 02:15:00,49.0,36.6,29.96,North,0,0.0,0.0,62,0.00,,,0.00,WUHU216HW,2013-05-24 09:15:00,
2013-05-24 02:20:00,48.8,36.0,29.95,North,0,0.0,0.0,61,0.00,,,0.00,WUHU216HW,2013-05-24 09:20:00,
2013-05-24 02:25:00,48.8,36.0,29.95,North,0,0.0,0.0,61,0.00,,,0.00,WUHU216HW,2013-05-24 09:25:00,
2013-05-24 02:30:00,48.6,36.2,29.95,North,0,0.0,0.0,62,0.00,,,0.00,WUHU216HW,2013-05-24 09:30:00,
2013-05-24 02:35:00,48.6,36.2,29.95,North,0,0.0,0.0,62,0.00,,,0.00,WUHU216HW,2013-05-24 09:35:00,
2013-05-24 02:40:00,48.6,36.2,29.95,North,0,0.0,0.0,62,0.00,,,0.00,WUHU216HW,2013-05-24 09:40:00,
2013-05-24 02:45:00,48.6,36.2,29.95,North,0,0.0,0.0,62,0.00,,,0.00,WUHU216HW,2013-05-24 09:45:00,
2013-05-24 02:51:00,48.4,36.4,29.95,North,0,0.0,0.0,63,0.00,,,0.00,WUHU216HW,2013-05-24 09:51:00,
2013-05-24 02:56:00,48.4,36.4,29.95,North,0,0.0,0.0,63,0.00,,,0.00,WUHU216HW,2013-05-24 09:56:00,
2013-05-24 03:01:00,48.2,36.3,29.95,North,0,0.0,0.0,63,0.00,,,0.00,WUHU216HW,2013-05-24 10:01:00,
2013-05-24 03:06:00,48.2,36.3,29.95,North,0,0.0,0.0,63,0.00,,,0.00,WUHU216HW,2013-05-24 10:06:00,
2013-05-24 03:11:00,48.2,36.3,29.95,North,0,0.0,0.0,63,0.00,,,0.00,WUHU216HW,2013-05-24 10:11:00,
2013-05-24 03:16:00,48.2,36.3,29.95,North,0,0.0,0.0,63,0.00,,,0.00,WUHU216HW,2013-05-24 10:16:00,
2013-05-24 03:21:00,48.1,36.1,29.95,North,0,0.0,0.0,63,0.00,,,0.00,WUHU216HW,2013-05-24 10:21:00,
2013-05-24 03:26:00,47.9,35.9,29.95,North,0,0.0,0.0,63,0.00,,,0.00,WUHU216HW,2013-05-24 10:26:00,
2013-05-24 03:31:00,47.9,35.9,29.95,North,0,0.0,0.0,63,0.00,,,0.00,WUHU216HW,2013-05-24 10:31:00,
2013-05-24 03:36:00,47.9,36.3,29.95,North,0,0.0,0.0,64,0.00,,,0.00,WUHU216HW,2013-05-24 10:36:00,
2013-05-24 03:41:00,47.7,36.1,29.95,North,0,0.0,0.0,64,0.00,,,0.00,WUHU216HW,2013-05-24 10:41:00,
2013-05-24 03:46:00,47.5,36.3,29.95,North,0,0.0,0.0,65,0.00,,,0.00,WUHU216HW,2013-05-24 10:46:00,
2013-05-24 03:51:00,47.5,36.3,29.95,North,0,0.0,0.0,65,0.00,,,0.00,WUHU216HW,2013-05-24 10:51:00,
2013-05-24 03:56:00,47.5,36.3,29.95,North,0,0.0,0.0,65,0.00,,,0.00,WUHU216HW,2013-05-24 10:56:00,
2013-05-24 04:01:00,47.5,36.7,29.95,North,0,0.0,0.0,66,0.00,,,0.00,WUHU216HW,2013-05-24 11:01:00,
2013-05-24 04:06:00,47.5,36.7,29.95,North,0,0.0,0.0,66,0.00,,,0.00,WUHU216HW,2013-05-24 11:06:00,
2013-05-24 04:11:00,47.5,36.7,29.95,North,0,0.0,0.0,66,0.00,,,0.00,WUHU216HW,2013-05-24 11:11:00,
2013-05-24 04:16:00,47.5,36.7,29.95,North,0,0.0,0.0,66,0.00,,,0.00,WUHU216HW,2013-05-24 11:16:00,
2013-05-24 04:21:00,47.5,36.7,29.94,North,0,0.0,0.0,66,0.00,,,0.00,WUHU216HW,2013-05-24 11:21:00,
2013-05-24 04:26:00,47.5,37.1,29.94,North,0,0.0,0.0,67,0.00,,,0.00,WUHU216HW,2013-05-24 11:26:00,
2013-05-24 04:31:00,47.3,36.9,29.94,North,0,0.0,0.0,67,0.00,,,0.00,WUHU216HW,2013-05-24 11:31:00,
2013-05-24 04:37:00,47.3,36.9,29.94,North,0,0.0,0.0,67,0.00,,,0.00,WUHU216HW,2013-05-24 11:37:00,
2013-05-24 04:42:00,47.3,36.9,29.94,North,0,0.0,0.0,67,0.00,,,0.00,WUHU216HW,2013-05-24 11:42:00,
2013-05-24 04:47:00,47.3,37.3,29.95,North,0,0.0,0.0,68,0.00,,,0.00,WUHU216HW,2013-05-24 11:47:00,
2013-05-24 04:52:00,47.2,37.2,29.95,North,0,0.0,0.0,68,0.00,,,0.00,WUHU216HW,2013-05-24 11:52:00,
2013-05-24 04:57:00,47.3,37.3,29.95,North,0,0.0,0.0,68,0.00,,,0.00,WUHU216HW,2013-05-24 11:57:00,
2013-05-24 05:02:00,47.2,37.2,29.95,North,0,0.0,0.0,68,0.00,,,0.00,WUHU216HW,2013-05-24 12:02:00,
2013-05-24 05:07:00,47.2,37.2,29.95,North,0,0.0,0.0,68,0.00,,,0.00,WUHU216HW,2013-05-24 12:07:00,
2013-05-24 05:12:00,47.2,37.2,29.95,North,0,0.0,0.0,68,0.00,,,0.00,WUHU216HW,2013-05-24 12:12:00,
2013-05-24 05:17:00,47.2,37.2,29.95,North,0,0.0,0.0,68,0.00,,,0.00,WUHU216HW,2013-05-24 12:17:00,
2013-05-24 05:22:00,47.2,37.2,29.96,North,0,0.0,0.0,68,0.00,,,0.00,WUHU216HW,2013-05-24 12:22:00,
2013-05-24 05:27:00,47.0,37.4,29.96,North,0,0.0,0.0,69,0.00,,,0.00,WUHU216HW,2013-05-24 12:27:00,
2013-05-24 05:32:00,47.0,37.4,29.96,North,0,0.0,0.0,69,0.00,,,0.00,WUHU216HW,2013-05-24 12:32:00,
2013-05-24 05:37:00,47.0,37.4,29.96,North,0,0.0,0.0,69,0.00,,,0.00,WUHU216HW,2013-05-24 12:37:00,
2013-05-24 05:42:00,47.0,37.4,29.96,North,0,0.0,0.0,69,0.00,,,0.00,WUHU216HW,2013-05-24 12:42:00,
2013-05-24 05:47:00,47.0,37.7,29.96,North,0,0.0,0.0,70,0.00,,,0.00,WUHU216HW,2013-05-24 12:47:00,
2013-05-24 05:52:00,47.0,37.7,29.96,North,0,0.0,0.0,70,0.00,,,0.00,WUHU216HW,2013-05-24 12:52:00,
2013-05-24 05:57:00,46.8,37.6,29.96,North,0,0.0,0.0,70,0.00,,,0.00,WUHU216HW,2013-05-24 12:57:00,
2013-05-24 06:02:00,46.8,37.6,29.96,North,0,0.0,0.0,70,0.00,,,0.00,WUHU216HW,2013-05-24 13:02:00,
2013-05-24 06:08:00,46.8,37.9,29.96,North,0,0.0,0.0,71,0.00,,,0.00,WUHU216HW,2013-05-24 13:08:00,
2013-05-24 06:13:00,46.8,37.9,29.96,North,0,0.0,0.0,71,0.00,,,0.00,WUHU216HW,2013-05-24 13:13:00,
2013-05-24 06:18:00,46.8,37.9,29.96,North,0,0.0,0.0,71,0.00,,,0.00,WUHU216HW,2013-05-24 13:18:00,
2013-05-24 06:23:00,46.8,37.9,29.96,North,0,0.0,0.0,71,0.00,,,0.00,WUHU216HW,2013-05-24 13:23:00,
2013-05-24 06:28:00,46.8,37.9,29.96,North,0,0.0,0.0,71,0.00,,,0.00,WUHU216HW,2013-05-24 13:28:00,
2013-05-24 06:33:00,47.0,38.4,29.96,North,0,0.0,0.0,72,0.00,,,0.00,WUHU216HW,2013-05-24 13:33:00,
2013-05-24 06:38:00,47.0,38.4,29.96,North,0,0.0,0.0,72,0.00,,,0.00,WUHU216HW,2013-05-24 13:38:00,
2013-05-24 06:43:00,47.2,38.6,29.96,North,0,0.0,0.0,72,0.00,,,0.00,WUHU216HW,2013-05-24 13:43:00,
2013-05-24 06:48:00,47.2,38.6,29.96,North,0,0.0,0.0,72,0.00,,,0.00,WUHU216HW,2013-05-24 13:48:00,
2013-05-24 06:53:00,47.5,38.9,29.97,North,0,0.0,0.0,72,0.00,,,0.00,WUHU216HW,2013-05-24 13:53:00,
2013-05-24 06:58:00,47.9,39.2,29.97,North,0,0.0,0.0,72,0.00,,,0.00,WUHU216HW,2013-05-24 13:58:00,
2013-05-24 07:03:00,48.2,39.6,29.97,North,0,0.0,0.0,72,0.00,,,0.00,WUHU216HW,2013-05-24 14:03:00,
2013-05-24 07:08:00,48.8,40.2,29.97,North,0,0.0,0.0,72,0.00,,,0.00,WUHU216HW,2013-05-24 14:08:00,
2013-05-24 07:13:00,49.3,40.7,29.97,North,0,0.0,0.0,72,0.00,,,0.00,WUHU216HW,2013-05-24 14:13:00,
2013-05-24 07:18:00,49.9,41.2,29.97,North,0,0.0,0.0,72,0.00,,,0.00,WUHU216HW,2013-05-24 14:18:00,
2013-05-24 07:24:00,50.8,42.4,29.97,North,0,0.0,0.0,73,0.00,,,0.00,WUHU216HW,2013-05-24 14:24:00,
2013-05-24 07:29:00,51.3,42.9,29.97,North,0,0.0,0.0,73,0.00,,,0.00,WUHU216HW,2013-05-24 14:29:00,
2013-05-24 07:34:00,52.0,43.3,29.97,North,0,0.0,0.0,72,0.00,,,0.00,WUHU216HW,2013-05-24 14:34:00,
2013-05-24 07:39:00,52.7,44.0,29.97,North,0,0.0,0.0,72,0.00,,,0.00,WUHU216HW,2013-05-24 14:39:00,
2013-05-24 07:44:00,53.3,44.8,29.97,North,0,0.0,0.0,73,0.00,,,0.00,WUHU216HW,2013-05-24 14:44:00,
2013-05-24 07:49:00,54.0,45.2,29.97,North,0,0.0,0.0,72,0.00,,,0.00,WUHU216HW,2013-05-24 14:49:00,
2013-05-24 07:54:00,54.7,45.6,29.97,North,0,0.0,0.0,71,0.00,,,0.00,WUHU216HW,2013-05-24 14:54:00,
2013-05-24 07:59:00,55.6,46.1,29.97,North,0,0.0,0.0,70,0.00,,,0.00,WUHU216HW,2013-05-24 14:59:00,
2013-05-24 08:04:00,56.2,46.2,29.97,North,0,0.0,0.0,69,0.00,,,0.00,WUHU216HW,2013-05-24 15:04:00,
2013-05-24 08:09:00,56.9,46.5,29.98,North,0,0.0,0.0,68,0.00,,,0.00,WUHU216HW,2013-05-24 15:09:00,
2013-05-24 08:14:00,57.4,46.5,29.97,North,0,0.0,0.0,67,0.00,,,0.00,WUHU216HW,2013-05-24 15:14:00,
2013-05-24 08:19:00,58.0,46.3,29.98,North,0,0.0,0.0,65,0.00,,,0.00,WUHU216HW,2013-05-24 15:19:00,
2013-05-24 08:24:00,58.7,46.5,29.98,North,0,0.0,0.0,64,0.00,,,0.00,WUHU216HW,2013-05-24 15:24:00,
2013-05-24 08:29:00,59.4,47.2,29.98,North,0,0.0,0.0,64,0.00,,,0.00,WUHU216HW,2013-05-24 15:29:00,
2013-05-24 08:34:00,59.9,47.7,29.98,North,0,0.0,0.0,64,0.00,,,0.00,WUHU216HW,2013-05-24 15:34:00,
2013-05-24 08:39:00,60.5,48.2,29.97,North,0,0.0,0.0,64,0.00,,,0.00,WUHU216HW,2013-05-24 15:39:00,
2013-05-24 08:44:00,61.2,49.0,29.97,North,0,0.0,0.0,64,0.00,,,0.00,WUHU216HW,2013-05-24 15:44:00,
2013-05-24 08:49:00,61.7,48.3,29.97,North,0,0.0,0.0,61,0.00,,,0.00,WUHU216HW,2013-05-24 15:49:00,
2013-05-24 08:54:00,62.3,48.7,29.98,North,0,0.0,0.0,61,0.00,,,0.00,WUHU216HW,2013-05-24 15:54:00,
2013-05-24 09:00:00,63.0,49.0,29.98,North,0,0.0,0.0,60,0.00,,,0.00,WUHU216HW,2013-05-24 16:00:00,
2013-05-24 09:05:00,63.5,49.4,29.97,North,0,0.0,0.0,60,0.00,,,0.00,WUHU216HW,2013-05-24 16:05:00,
2013-05-24 09:10:00,64.3,49.6,29.97,North,0,0.0,0.0,59,0.00,,,0.00,WUHU216HW,2013-05-24 16:10:00,
2013-05-24 09:15:00,64.8,49.2,29.97,North,0,0.0,0.0,57,0.00,,,0.00,WUHU216HW,2013-05-24 16:15:00,
2013-05-24 09:20:00,65.5,49.3,29.98,North,0,0.0,0.0,56,0.00,,,0.00,WUHU216HW,2013-05-24 16:20:00,
2013-05-24 09:25:00,65.9,49.2,29.98,North,0,0.0,0.0,55,0.00,,,0.00,WUHU216HW,2013-05-24 16:25:00,
2013-05-24 09:30:00,66.6,50.0,29.98,North,0,0.0,0.0,55,0.00,,,0.00,WUHU216HW,2013-05-24 16:30:00,
2013-05-24 09:35:00,67.0,48.3,29.98,North,0,0.0,0.0,51,0.00,,,0.00,WUHU216HW,2013-05-24 16:35:00,
2013-05-24 09:40:00,67.1,48.0,29.98,North,0,0.0,0.0,50,0.00,,,0.00,WUHU216HW,2013-05-24 16:40:00,
2013-05-24 09:45:00,67.3,48.6,29.97,North,0,0.0,0.0,51,0.00,,,0.00,WUHU216HW,2013-05-24 16:45:00,
2013-05-24 09:50:00,67.7,48.4,29.97,North,0,0.0,0.0,50,0.00,,,0.00,WUHU216HW,2013-05-24 16:50:00,
2013-05-24 09:55:00,68.4,49.2,29.98,North,0,0.0,0.0,50,0.00,,,0.00,WUHU216HW,2013-05-24 16:55:00,
2013-05-24 10:00:00,69.3,48.2,29.97,North,0,0.0,0.0,47,0.00,,,0.00,WUHU216HW,2013-05-24 17:00:00,
2013-05-24 10:05:00,69.1,48.6,29.97,North,0,0.0,0.0,48,0.00,,,0.00,WUHU216HW,2013-05-24 17:05:00,
2013-05-24 10:11:00,69.5,49.5,29.97,North,0,0.0,0.0,49,0.00,,,0.00,WUHU216HW,2013-05-24 17:11:00,
2013-05-24 10:16:00,70.0,48.8,29.97,North,0,0.0,0.0,47,0.00,,,0.00,WUHU216HW,2013-05-24 17:16:00,
2013-05-24 10:21:00,69.8,48.6,29.97,North,0,0.0,0.0,47,0.00,,,0.00,WUHU216HW,2013-05-24 17:21:00,
2013-05-24 10:26:00,69.8,49.2,29.96,North,0,0.0,0.0,48,0.00,,,0.00,WUHU216HW,2013-05-24 17:26:00,
2013-05-24 10:31:00,70.0,49.4,29.96,North,0,0.0,0.0,48,0.00,,,0.00,WUHU216HW,2013-05-24 17:31:00,
2013-05-24 10:36:00,69.8,48.6,29.97,North,0,0.0,0.0,47,0.00,,,0.00,WUHU216HW,2013-05-24 17:36:00,
2013-05-24 10:41:00,69.7,48.4,29.97,North,0,0.0,0.0,47,0.00,,,0.00,WUHU216HW,2013-05-24 17:41:00,
2013-05-24 10:46:00,69.1,48.0,29.97,North,0,0.0,0.0,47,0.00,,,0.00,WUHU216HW,2013-05-24 17:46:00,
2013-05-24 10:51:00,68.8,47.1,29.97,North,0,0.0,0.0,46,0.00,,,0.00,WUHU216HW,2013-05-24 17:51:00,
2013-05-24 10:56:00,68.6,47.5,29.97,North,0,0.0,0.0,47,0.00,,,0.00,WUHU216HW,2013-05-24 17:56:00,
2013-05-24 11:01:00,68.6,47.5,29.97,North,0,0.0,0.0,47,0.00,,,0.00,WUHU216HW,2013-05-24 18:01:00,
2013-05-24 11:06:00,68.4,47.4,29.97,North,0,0.0,0.0,47,0.00,,,0.00,WUHU216HW,2013-05-24 18:06:00,
2013-05-24 11:11:00,68.2,47.2,29.97,North,0,0.0,0.0,47,0.00,,,0.00,WUHU216HW,2013-05-24 18:11:00,
2013-05-24 11:16:00,68.0,47.0,29.97,North,0,0.0,0.0,47,0.00,,,0.00,WUHU216HW,2013-05-24 18:16:00,
2013-05-24 11:22:00,68.0,47.0,29.97,North,0,0.0,0.0,47,0.00,,,0.00,WUHU216HW,2013-05-24 18:22:00,
2013-05-24 11:27:00,68.0,47.6,29.97,North,0,0.0,0.0,48,0.00,,,0.00,WUHU216HW,2013-05-24 18:27:00,
2013-05-24 11:32:00,68.0,47.6,29.97,North,0,0.0,0.0,48,0.00,,,0.00,WUHU216HW,2013-05-24 18:32:00,
2013-05-24 11:37:00,68.2,47.8,29.96,North,0,0.0,0.0,48,0.00,,,0.00,WUHU216HW,2013-05-24 18:37:00,
2013-05-24 11:42:00,68.4,48.5,29.97,North,0,0.0,0.0,49,0.00,,,0.00,WUHU216HW,2013-05-24 18:42:00,
2013-05-24 11:47:00,68.2,48.3,29.96,North,0,0.0,0.0,49,0.00,,,0.00,WUHU216HW,2013-05-24 18:47:00,
2013-05-24 11:52:00,68.0,48.2,29.97,North,0,0.0,0.0,49,0.00,,,0.00,WUHU216HW,2013-05-24 18:52:00,
2013-05-24 11:57:00,67.9,48.6,29.97,North,0,0.0,0.0,50,0.00,,,0.00,WUHU216HW,2013-05-24 18:57:00,
2013-05-24 12:02:00,67.9,48.6,29.96,North,0,0.0,0.0,50,0.00,,,0.00,WUHU216HW,2013-05-24 19:02:00,
2013-05-24 12:07:00,67.7,47.9,29.96,North,0,0.0,0.0,49,0.00,,,0.00,WUHU216HW,2013-05-24 19:07:00,
2013-05-24 12:12:00,67.5,47.7,29.96,North,0,0.0,0.0,49,0.00,,,0.00,WUHU216HW,2013-05-24 19:12:00,
2013-05-24 12:17:00,67.7,48.4,29.96,North,0,0.0,0.0,50,0.00,,,0.00,WUHU216HW,2013-05-24 19:17:00,
2013-05-24 12:22:00,67.7,48.4,29.96,North,0,0.0,0.0,50,0.00,,,0.00,WUHU216HW,2013-05-24 19:22:00,
2013-05-24 12:27:00,67.9,48.6,29.96,North,0,0.0,0.0,50,0.00,,,0.00,WUHU216HW,2013-05-24 19:27:00,
2013-05-24 12:32:00,68.0,48.2,29.96,North,0,0.0,0.0,49,0.00,,,0.00,WUHU216HW,2013-05-24 19:32:00,
2013-05-24 12:37:00,68.0,48.2,29.96,North,0,0.0,0.0,49,0.00,,,0.00,WUHU216HW,2013-05-24 19:37:00,
2013-05-24 12:42:00,68.0,48.2,29.96,North,0,0.0,0.0,49,0.00,,,0.00,WUHU216HW,2013-05-24 19:42:00,
2013-05-24 12:47:00,68.2,48.3,29.96,North,0,0.0,0.0,49,0.00,,,0.00,WUHU216HW,2013-05-24 19:47:00,
2013-05-24 12:53:00,68.6,49.2,29.96,North,0,0.0,0.0,50,0.00,,,0.00,WUHU216HW,2013-05-24 19:53:00,
2013-05-24 12:58:00,68.6,48.7,29.95,North,0,0.0,0.0,49,0.00,,,0.00,WUHU216HW,2013-05-24 19:58:00,
2013-05-24 13:03:00,68.6,48.7,29.95,North,0,0.0,0.0,49,0.00,,,0.00,WUHU216HW,2013-05-24 20:03:00,
2013-05-24 13:08:00,68.8,48.9,29.95,North,0,0.0,0.0,49,0.00,,,0.00,WUHU216HW,2013-05-24 20:08:00,
2013-05-24 13:13:00,68.9,48.4,29.95,North,0,0.0,0.0,48,0.00,,,0.00,WUHU216HW,2013-05-24 20:13:00,
2013-05-24 13:18:00,68.9,47.8,29.95,North,0,0.0,0.0,47,0.00,,,0.00,WUHU216HW,2013-05-24 20:18:00,
2013-05-24 13:23:00,69.3,47.5,29.95,North,0,0.0,0.0,46,0.00,,,0.00,WUHU216HW,2013-05-24 20:23:00,
2013-05-24 13:28:00,69.5,47.1,29.95,North,0,0.0,0.0,45,0.00,,,0.00,WUHU216HW,2013-05-24 20:28:00,
2013-05-24 13:33:00,69.8,46.8,29.95,North,0,0.0,0.0,44,0.00,,,0.00,WUHU216HW,2013-05-24 20:33:00,
2013-05-24 13:38:00,70.0,47.0,29.95,North,0,0.0,0.0,44,0.00,,,0.00,WUHU216HW,2013-05-24 20:38:00,
2013-05-24 13:43:00,70.2,46.5,29.95,North,0,0.0,0.0,43,0.00,,,0.00,WUHU216HW,2013-05-24 20:43:00,
2013-05-24 13:48:00,70.4,45.5,29.95,North,0,0.0,0.0,41,0.00,,,0.00,WUHU216HW,2013-05-24 20:48:00,
2013-05-24 13:53:00,70.4,44.9,29.95,North,0,0.0,0.0,40,0.00,,,0.00,WUHU216HW,2013-05-24 20:53:00,
2013-05-24 13:59:00,70.6,45.1,29.95,North,0,0.0,0.0,40,0.00,,,0.00,WUHU216HW,2013-05-24 20:59:00,
2013-05-24 14:04:00,70.6,45.1,29.95,North,0,0.0,0.0,40,0.00,,,0.00,WUHU216HW,2013-05-24 21:04:00,
2013-05-24 14:09:00,70.6,44.4,29.95,North,0,0.0,0.0,39,0.00,,,0.00,WUHU216HW,2013-05-24 21:09:00,
2013-05-24 14:14:00,70.6,45.1,29.95,North,0,0.0,0.0,40,0.00,,,0.00,WUHU216HW,2013-05-24 21:14:00,
2013-05-24 14:19:00,70.7,44.6,29.95,North,0,0.0,0.0,39,0.00,,,0.00,WUHU216HW,2013-05-24 21:19:00,
2013-05-24 14:24:00,70.9,44.7,29.95,North,0,0.0,0.0,39,0.00,,,0.00,WUHU216HW,2013-05-24 21:24:00,
2013-05-24 14:29:00,70.9,44.7,29.95,North,0,0.0,0.0,39,0.00,,,0.00,WUHU216HW,2013-05-24 21:29:00,
2013-05-24 14:34:00,70.9,44.7,29.95,North,0,0.0,0.0,39,0.00,,,0.00,WUHU216HW,2013-05-24 21:34:00,
2013-05-24 14:39:00,71.1,43.4,29.95,North,0,0.0,0.0,37,0.00,,,0.00,WUHU216HW,2013-05-24 21:39:00,
2013-05-24 14:44:00,71.1,44.1,29.95,North,0,0.0,0.0,38,0.00,,,0.00,WUHU216HW,2013-05-24 21:44:00,
2013-05-24 14:49:00,71.1,44.8,29.95,North,0,0.0,0.0,39,0.00,,,0.00,WUHU216HW,2013-05-24 21:49:00,
2013-05-24 14:54:00,71.1,44.8,29.95,North,0,0.0,0.0,39,0.00,,,0.00,WUHU216HW,2013-05-24 21:54:00,
2013-05-24 14:59:00,71.3,45.0,29.95,North,0,0.0,0.0,39,0.00,,,0.00,WUHU216HW,2013-05-24 21:59:00,
2013-05-24 15:04:00,71.1,44.8,29.94,North,0,0.0,0.0,39,0.00,,,0.00,WUHU216HW,2013-05-24 22:04:00,
2013-05-24 15:09:00,71.1,44.8,29.94,North,0,0.0,0.0,39,0.00,,,0.00,WUHU216HW,2013-05-24 22:09:00,
2013-05-24 15:14:00,71.3,45.0,29.94,North,0,0.0,0.0,39,0.00,,,0.00,WUHU216HW,2013-05-24 22:14:00,
2013-05-24 15:19:00,71.3,45.0,29.94,North,0,0.0,0.0,39,0.00,,,0.00,WUHU216HW,2013-05-24 22:19:00,
2013-05-24 15:24:00,71.3,45.0,29.94,North,0,0.0,0.0,39,0.00,,,0.00,WUHU216HW,2013-05-24 22:24:00,
2013-05-24 15:29:00,71.3,45.0,29.94,North,0,0.0,0.0,39,0.00,,,0.00,WUHU216HW,2013-05-24 22:29:00,
2013-05-24 15:34:00,71.3,45.7,29.94,North,0,0.0,0.0,40,0.00,,,0.00,WUHU216HW,2013-05-24 22:34:00,
2013-05-24 15:39:00,71.3,45.7,29.94,North,0,0.0,0.0,40,0.00,,,0.00,WUHU216HW,2013-05-24 22:39:00,
2013-05-24 15:45:00,71.1,45.6,29.94,North,0,0.0,0.0,40,0.00,,,0.00,WUHU216HW,2013-05-24 22:45:00,
2013-05-24 15:50:00,70.9,45.5,29.94,North,0,0.0,0.0,40,0.00,,,0.00,WUHU216HW,2013-05-24 22:50:00,
2013-05-24 15:55:00,70.6,45.7,29.94,North,0,0.0,0.0,41,0.00,,,0.00,WUHU216HW,2013-05-24 22:55:00,
2013-05-24 16:00:00,70.2,45.4,29.94,North,0,0.0,0.0,41,0.00,,,0.00,WUHU216HW,2013-05-24 23:00:00,
2013-05-24 16:05:00,70.0,45.8,29.94,North,0,0.0,0.0,42,0.00,,,0.00,WUHU216HW,2013-05-24 23:05:00,
2013-05-24 16:10:00,69.7,45.5,29.94,North,0,0.0,0.0,42,0.00,,,0.00,WUHU216HW,2013-05-24 23:10:00,
2013-05-24 16:15:00,69.5,45.4,29.95,North,0,0.0,0.0,42,0.00,,,0.00,WUHU216HW,2013-05-24 23:15:00,
2013-05-24 16:20:00,69.1,45.6,29.95,North,0,0.0,0.0,43,0.00,,,0.00,WUHU216HW,2013-05-24 23:20:00,
2013-05-24 16:25:00,68.9,45.5,29.95,North,0,0.0,0.0,43,0.00,,,0.00,WUHU216HW,2013-05-24 23:25:00,
2013-05-24 16:30:00,68.6,45.1,29.95,North,0,0.0,0.0,43,0.00,,,0.00,WUHU216HW,2013-05-24 23:30:00,
2013-05-24 16:35:00,68.2,45.4,29.95,North,0,0.0,0.0,44,0.00,,,0.00,WUHU216HW,2013-05-24 23:35:00,
2013-05-24 16:40:00,68.0,44.7,29.95,North,0,0.0,0.0,43,0.00,,,0.00,WUHU216HW,2013-05-24 23:40:00,
2013-05-24 16:45:00,67.7,44.3,29.95,North,0,0.0,0.0,43,0.00,,,0.00,WUHU216HW,2013-05-24 23:45:00,
2013-05-24 16:50:00,67.3,44.6,29.96,North,0,0.0,0.0,44,0.00,,,0.00,WUHU216HW,2013-05-24 23:50:00,
2013-05-24 16:55:00,67.1,44.4,29.95,North,0,0.0,0.0,44,0.00,,,0.00,WUHU216HW,2013-05-24 23:55:00,
2013-05-24 17:00:00,67.0,44.3,29.95,North,0,0.0,0.0,44,0.00,,,0.00,WUHU216HW,2013-05-25 00:00:00,
2013-05-24 17:06:00,66.6,44.6,29.96,North,0,0.0,0.0,45,0.00,,,0.00,WUHU216HW,2013-05-25 00:06:00,
2013-05-24 17:11:00,66.4,44.4,29.96,North,0,0.0,0.0,45,0.00,,,0.00,WUHU216HW,2013-05-25 00:11:00,
2013-05-24 17:16:00,66.2,44.2,29.95,North,0,0.0,0.0,45,0.00,,,0.00,WUHU216HW,2013-05-25 00:16:00,
2013-05-24 17:21:00,66.1,44.0,29.96,North,0,0.0,0.0,45,0.00,,,0.00,WUHU216HW,2013-05-25 00:21:00,
2013-05-24 17:26:00,65.9,44.5,29.96,North,0,0.0,0.0,46,0.00,,,0.00,WUHU216HW,2013-05-25 00:26:00,
2013-05-24 17:31:00,65.7,44.3,29.96,North,0,0.0,0.0,46,0.00,,,0.00,WUHU216HW,2013-05-25 00:31:00,
2013-05-24 17:36:00,65.5,44.6,29.95,North,0,0.0,0.0,47,0.00,,,0.00,WUHU216HW,2013-05-25 00:36:00,
2013-05-24 17:41:00,65.2,44.4,29.96,North,0,0.0,0.0,47,0.00,,,0.00,WUHU216HW,2013-05-25 00:41:00,
2013-05-24 17:46:00,65.0,44.2,29.96,North,0,0.0,0.0,47,0.00,,,0.00,WUHU216HW,2013-05-25 00:46:00,
2013-05-24 17:51:00,64.6,43.8,29.96,North,0,0.0,0.0,47,0.00,,,0.00,WUHU216HW,2013-05-25 00:51:00,
2013-05-24 17:56:00,64.3,44.0,29.96,North,0,0.0,0.0,48,0.00,,,0.00,WUHU216HW,2013-05-25 00:56:00,
2013-05-24 18:01:00,64.1,43.9,29.96,North,0,0.0,0.0,48,0.00,,,0.00,WUHU216HW,2013-05-25 01:01:00,
2013-05-24 18:06:00,63.7,43.6,29.97,North,0,0.0,0.0,48,0.00,,,0.00,WUHU216HW,2013-05-25 01:06:00,
2013-05-24 18:11:00,63.5,43.4,29.96,North,0,0.0,0.0,48,0.00,,,0.00,WUHU216HW,2013-05-25 01:11:00,
2013-05-24 18:16:00,63.2,43.1,29.96,North,0,0.0,0.0,48,0.00,,,0.00,WUHU216HW,2013-05-25 01:16:00,
2013-05-24 18:21:00,63.0,42.9,29.96,North,0,0.0,0.0,48,0.00,,,0.00,WUHU216HW,2013-05-25 01:21:00,
2013-05-24 18:26:00,62.8,43.3,29.96,North,0,0.0,0.0,49,0.00,,,0.00,WUHU216HW,2013-05-25 01:26:00,
2013-05-24 18:31:00,62.5,42.4,29.96,North,0,0.0,0.0,48,0.00,,,0.00,WUHU216HW,2013-05-25 01:31:00,
2013-05-24 18:36:00,62.3,42.8,29.96,North,0,0.0,0.0,49,0.00,,,0.00,WUHU216HW,2013-05-25 01:36:00,
2013-05-24 18:42:00,62.1,42.7,29.96,North,0,0.0,0.0,49,0.00,,,0.00,WUHU216HW,2013-05-25 01:42:00,
2013-05-24 18:47:00,61.9,42.5,29.96,North,0,0.0,0.0,49,0.00,,,0.00,WUHU216HW,2013-05-25 01:47:00,
2013-05-24 18:52:00,61.7,42.4,29.96,North,0,0.0,0.0,49,0.00,,,0.00,WUHU216HW,2013-05-25 01:52:00,
2013-05-24 18:57:00,61.6,42.2,29.96,North,0,0.0,0.0,49,0.00,,,0.00,WUHU216HW,2013-05-25 01:57:00,
2013-05-24 19:02:00,61.4,42.0,29.96,North,0,0.0,0.0,49,0.00,,,0.00,WUHU216HW,2013-05-25 02:02:00,
2013-05-24 19:07:00,61.2,41.9,29.96,North,0,0.0,0.0,49,0.00,,,0.00,WUHU216HW,2013-05-25 02:07:00,
2013-05-24 19:12:00,60.8,41.6,29.96,North,0,0.0,0.0,49,0.00,,,0.00,WUHU216HW,2013-05-25 02:12:00,
2013-05-24 19:17:00,60.8,42.1,29.96,North,0,0.0,0.0,50,0.00,,,0.00,WUHU216HW,2013-05-25 02:17:00,
2013-05-24 19:22:00,60.7,41.9,29.96,North,0,0.0,0.0,50,0.00,,,0.00,WUHU216HW,2013-05-25 02:22:00,
2013-05-24 19:27:00,60.5,41.8,29.96,North,0,0.0,0.0,50,0.00,,,0.00,WUHU216HW,2013-05-25 02:27:00,
2013-05-24 19:32:00,60.1,41.9,29.97,North,0,0.0,0.0,51,0.00,,,0.00,WUHU216HW,2013-05-25 02:32:00,
2013-05-24 19:37:00,60.1,41.9,29.97,North,0,0.0,0.0,51,0.00,,,0.00,WUHU216HW,2013-05-25 02:37:00,
2013-05-24 19:42:00,59.9,41.8,29.97,North,0,0.0,0.0,51,0.00,,,0.00,WUHU216HW,2013-05-25 02:42:00,
2013-05-24 19:47:00,59.8,42.1,29.97,North,0,0.0,0.0,52,0.00,,,0.00,WUHU216HW,2013-05-25 02:47:00,
2013-05-24 19:52:00,59.4,42.2,29.97,North,0,0.0,0.0,53,0.00,,,0.00,WUHU216HW,2013-05-25 02:52:00,
2013-05-24 19:57:00,59.2,42.0,29.97,North,0,0.0,0.0,53,0.00,,,0.00,WUHU216HW,2013-05-25 02:57:00,
2013-05-24 20:02:00,59.0,42.0,29.97,North,0,0.0,0.0,53,0.00,,,0.00,WUHU216HW,2013-05-25 03:02:00,
2013-05-24 20:07:00,58.7,41.6,29.97,North,0,0.0,0.0,53,0.00,,,0.00,WUHU216HW,2013-05-25 03:07:00,
2013-05-24 20:12:00,58.7,42.0,29.97,North,0,0.0,0.0,54,0.00,,,0.00,WUHU216HW,2013-05-25 03:12:00,
2013-05-24 20:17:00,58.3,41.8,29.97,North,0,0.0,0.0,54,0.00,,,0.00,WUHU216HW,2013-05-25 03:17:00,
2013-05-24 20:23:00,58.1,41.6,29.98,North,0,0.0,0.0,54,0.00,,,0.00,WUHU216HW,2013-05-25 03:23:00,
2013-05-24 20:28:00,58.0,41.4,29.97,North,0,0.0,0.0,54,0.00,,,0.00,WUHU216HW,2013-05-25 03:28:00,
2013-05-24 20:33:00,57.8,41.7,29.98,North,0,0.0,0.0,55,0.00,,,0.00,WUHU216HW,2013-05-25 03:33:00,
2013-05-24 20:38:00,57.6,41.0,29.97,North,0,0.0,0.0,54,0.00,,,0.00,WUHU216HW,2013-05-25 03:38:00,
2013-05-24 20:43:00,57.2,40.8,29.97,North,0,0.0,0.0,54,0.00,,,0.00,WUHU216HW,2013-05-25 03:43:00,
2013-05-24 20:48:00,57.2,40.8,29.97,North,0,0.0,0.0,54,0.00,,,0.00,WUHU216HW,2013-05-25 03:48:00,
2013-05-24 20:53:00,56.9,40.9,29.97,North,0,0.0,0.0,55,0.00,,,0.00,WUHU216HW,2013-05-25 03:53:00,
2013-05-24 20:58:00,56.9,40.9,29.97,North,0,0.0,0.0,55,0.00,,,0.00,WUHU216HW,2013-05-25 03:58:00,
2013-05-24 21:01:00,56.7,40.7,29.97,North,0,0.0,0.0,55,0.00,,,0.00,WUHU216HW,2013-05-25 04:01:00,
2013-05-24 21:02:00,56.7,40.7,29.97,North,0,0.0,0.0,55,0.00,,,0.00,WUHU216HW,2013-05-25 04:02:00,
2013-05-24 21:07:00,56.5,41.0,29.97,North,0,0.0,0.0,56,0.00,,,0.00,WUHU216HW,2013-05-25 04:07:00,
2013-05-24 21:12:00,56.5,41.0,29.97,North,0,0.0,0.0,56,0.00,,,0.00,WUHU216HW,2013-05-25 04:12:00,
2013-05-24 21:17:00,56.3,40.8,29.97,North,0,0.0,0.0,56,0.00,,,0.00,WUHU216HW,2013-05-25 04:17:00,
2013-05-24 21:22:00,56.2,41.0,29.98,North,0,0.0,0.0,57,0.00,,,0.00,WUHU216HW,2013-05-25 04:22:00,
2013-05-24 21:27:00,56.0,41.4,29.98,North,0,0.0,0.0,58,0.00,,,0.00,WUHU216HW,2013-05-25 04:27:00,
2013-05-24 21:32:00,55.8,40.7,29.98,North,0,0.0,0.0,57,0.00,,,0.00,WUHU216HW,2013-05-25 04:32:00,
2013-05-24 21:37:00,55.8,41.2,29.97,North,0,0.0,0.0,58,0.00,,,0.00,WUHU216HW,2013-05-25 04:37:00,
2013-05-24 21:42:00,55.8,41.2,29.98,North,0,0.0,0.0,58,0.00,,,0.00,WUHU216HW,2013-05-25 04:42:00,
2013-05-24 21:47:00,55.6,41.5,29.98,North,0,0.0,0.0,59,0.00,,,0.00,WUHU216HW,2013-05-25 04:47:00,
2013-05-24 21:52:00,55.6,41.5,29.98,North,0,0.0,0.0,59,0.00,,,0.00,WUHU216HW,2013-05-25 04:52:00,
2013-05-24 21:57:00,55.4,41.3,29.98,North,0,0.0,0.0,59,0.00,,,0.00,WUHU216HW,2013-05-25 04:57:00,
2013-05-24 22:02:00,55.4,41.3,29.98,North,0,0.0,0.0,59,0.00,,,0.00,WUHU216HW,2013-05-25 05:02:00,
2013-05-24 22:07:00,55.3,41.6,29.98,North,0,0.0,0.0,60,0.00,,,0.00,WUHU216HW,2013-05-25 05:07:00,
2013-05-24 22:13:00,55.3,41.6,29.98,North,0,0.0,0.0,60,0.00,,,0.00,WUHU216HW,2013-05-25 05:13:00,
2013-05-24 22:18:00,55.1,41.4,29.99,North,0,0.0,0.0,60,0.00,,,0.00,WUHU216HW,2013-05-25 05:18:00,
2013-05-24 22:23:00,55.1,41.4,29.99,North,0,0.0,0.0,60,0.00,,,0.00,WUHU216HW,2013-05-25 05:23:00,
2013-05-24 22:28:00,54.9,41.7,29.98,North,0,0.0,0.0,61,0.00,,,0.00,WUHU216HW,2013-05-25 05:28:00,
2013-05-24 22:33:00,54.7,41.5,29.99,North,0,0.0,0.0,61,0.00,,,0.00,WUHU216HW,2013-05-25 05:33:00,
2013-05-24 22:38:00,54.7,41.5,29.99,North,0,0.0,0.0,61,0.00,,,0.00,WUHU216HW,2013-05-25 05:38:00,
2013-05-24 22:43:00,54.7,41.5,29.99,North,0,0.0,0.0,61,0.00,,,0.00,WUHU216HW,2013-05-25 05:43:00,
2013-05-24 22:48:00,54.5,41.3,29.99,North,0,0.0,0.0,61,0.00,,,0.00,WUHU216HW,2013-05-25 05:48:00,
2013-05-24 22:53:00,54.4,41.2,29.98,North,0,0.0,0.0,61,0.00,,,0.00,WUHU216HW,2013-05-25 05:53:00,
2013-05-24 22:58:00,54.4,41.6,29.98,North,0,0.0,0.0,62,0.00,,,0.00,WUHU216HW,2013-05-25 05:58:00,
2013-05-24 23:03:00,54.4,41.6,29.98,North,0,0.0,0.0,62,0.00,,,0.00,WUHU216HW,2013-05-25 06:03:00,
2013-05-24 23:08:00,54.4,41.6,29.98,North,0,0.0,0.0,62,0.00,,,0.00,WUHU216HW,2013-05-25 06:08:00,
2013-05-24 23:13:00,54.2,41.4,29.98,North,0,0.0,0.0,62,0.00,,,0.00,WUHU216HW,2013-05-25 06:13:00,
2013-05-24 23:18:00,54.0,41.2,29.98,North,0,0.0,0.0,62,0.00,,,0.00,WUHU216HW,2013-05-25 06:18:00,
2013-05-24 23:23:00,54.0,41.2,29.98,North,0,0.0,0.0,62,0.00,,,0.00,WUHU216HW,2013-05-25 06:23:00,
2013-05-24 23:28:00,54.0,41.2,29.98,North,0,0.0,0.0,62,0.00,,,0.00,WUHU216HW,2013-05-25 06:28:00,
2013-05-24 23:33:00,53.8,41.1,29.98,North,0,0.0,0.0,62,0.00,,,0.00,WUHU216HW,2013-05-25 06:33:00,
2013-05-24 23:39:00,53.6,41.3,29.98,North,0,0.0,0.0,63,0.00,,,0.00,WUHU216HW,2013-05-25 06:39:00,
2013-05-24 23:44:00,53.6,41.3,29.98,North,0,0.0,0.0,63,0.00,,,0.00,WUHU216HW,2013-05-25 06:44:00,
2013-05-24 23:49:00,53.5,41.1,29.98,North,0,0.0,0.0,63,0.00,,,0.00,WUHU216HW,2013-05-25 06:49:00,
2013-05-24 23:54:00,53.3,41.0,29.98,North,0,0.0,0.0,63,0.00,,,0.00,WUHU216HW,2013-05-25 06:54:00,
2013-05-24 23:59:00,53.3,41.0,29.98,North,0,0.0,0.0,63,0.00,,,0.00,WUHU216HW,2013-05-25 06:59:00,